When you browse on this site, cookies collect data to enhance your experience and personalize the content and advertising you see.
Visit our Privacy Policy to learn more. By continuing to use the site, you agree to this use of cookies and data.
  • en France
  • Liste des pays
  • À 7 jours
  • Température de l'eau
  • Carte météo
  • Widgets météo
  • user-avatar
    Se connecter

    Météo par heure à Molepolole

    Ce jour, 10 Décembre, Mardi

    Heure Température Précipitation Vent Pression Humidité
    00:00 +19°C° 0.1 mm 2 m/s 661 mmHg 89%
    01:00 +19°C° 0.1 mm 3 m/s 661 mmHg 90%
    02:00 +19°C° 0.1 mm 3 m/s 661 mmHg 92%
    03:00 +19°C° 0.6 mm 3 m/s 661 mmHg 92%
    04:00 +19°C° 0.6 mm 2 m/s 661 mmHg 92%
    05:00 +19°C° 0.6 mm 2 m/s 661 mmHg 91%
    06:00 +20°C° 0.7 mm 3 m/s 661 mmHg 87%
    07:00 +21°C° 0.7 mm 4 m/s 662 mmHg 84%
    08:00 +22°C° 0.7 mm 5 m/s 663 mmHg 80%
    09:00 +23°C° 0.5 mm 5 m/s 663 mmHg 76%
    10:00 +23°C° 0.5 mm 5 m/s 663 mmHg 72%
    11:00 +25°C° 0.5 mm 5 m/s 663 mmHg 68%
    12:00 +26°C° 0.8 mm 4 m/s 663 mmHg 63%
    13:00 +27°C° 0.8 mm 3 m/s 662 mmHg 58%
    14:00 +27°C° 0.8 mm 3 m/s 662 mmHg 53%
    15:00 +27°C° 0.8 mm 3 m/s 661 mmHg 56%
    16:00 +26°C° 0.8 mm 3 m/s 661 mmHg 59%
    17:00 +25°C° 0.8 mm 3 m/s 660 mmHg 61%
    18:00 +24°C° 0.4 mm 3 m/s 661 mmHg 67%
    19:00 +22°C° 0.4 mm 3 m/s 661 mmHg 73%
    20:00 +21°C° 0.4 mm 3 m/s 661 mmHg 79%
    21:00 +21°C° 0 mm 3 m/s 661 mmHg 81%
    22:00 +20°C° 0 mm 3 m/s 662 mmHg 82%
    23:00 +20°C° 0 mm 3 m/s 662 mmHg 84%

    Demain, 11 Décembre, Mercredi

    Heure Température Précipitation Vent Pression Humidité
    00:00 +20°C° 0 mm 3 m/s 662 mmHg 87%
    01:00 +19°C° 0 mm 3 m/s 661 mmHg 89%
    02:00 +19°C° 0 mm 3 m/s 661 mmHg 92%
    03:00 +18°C° 0 mm 2 m/s 661 mmHg 94%
    04:00 +18°C° 0 mm 2 m/s 661 mmHg 95%
    05:00 +18°C° 0 mm 2 m/s 661 mmHg 96%
    06:00 +18°C° 0 mm 2 m/s 661 mmHg 92%
    07:00 +19°C° 0 mm 2 m/s 662 mmHg 88%
    08:00 +20°C° 0 mm 2 m/s 662 mmHg 84%
    09:00 +21°C° 0 mm 2 m/s 662 mmHg 76%
    10:00 +24°C° 0 mm 2 m/s 663 mmHg 68%
    11:00 +26°C° 0 mm 2 m/s 663 mmHg 60%
    12:00 +27°C° 0 mm 2 m/s 663 mmHg 51%
    13:00 +29°C° 0 mm 2 m/s 663 mmHg 42%
    14:00 +30°C° 0 mm 2 m/s 662 mmHg 33%
    15:00 +30°C° 0 mm 1 m/s 662 mmHg 33%
    16:00 +30°C° 0 mm 1 m/s 662 mmHg 33%
    17:00 +30°C° 0 mm 1 m/s 662 mmHg 33%
    18:00 +29°C° 0 mm 1 m/s 662 mmHg 38%
    19:00 +28°C° 0 mm 2 m/s 661 mmHg 44%
    20:00 +26°C° 0 mm 2 m/s 661 mmHg 49%
    21:00 +26°C° 0 mm 2 m/s 662 mmHg 50%
    22:00 +25°C° 0 mm 2 m/s 662 mmHg 52%
    23:00 +24°C° 0 mm 3 m/s 662 mmHg 53%

    Après-demain, 12 Décembre, Jeudi

    Heure Température Précipitation Vent Pression Humidité
    00:00 +24°C° 0 mm 3 m/s 662 mmHg 54%
    01:00 +22°C° 0 mm 3 m/s 661 mmHg 55%
    02:00 +22°C° 0 mm 3 m/s 661 mmHg 56%
    03:00 +23°C° 0 mm 2 m/s 661 mmHg 56%
    04:00 +21°C° 0 mm 2 m/s 661 mmHg 56%
    05:00 +21°C° 0 mm 2 m/s 661 mmHg 56%
    06:00 +24°C° 0 mm 2 m/s 662 mmHg 52%
    07:00 +25°C° 0 mm 2 m/s 663 mmHg 47%
    08:00 +27°C° 0 mm 2 m/s 663 mmHg 43%
    09:00 +28°C° 0 mm 3 m/s 664 mmHg 38%
    10:00 +30°C° 0 mm 3 m/s 664 mmHg 33%
    11:00 +33°C° 0 mm 3 m/s 664 mmHg 28%
    12:00 +32°C° 0 mm 2 m/s 664 mmHg 26%
    13:00 +34°C° 0 mm 2 m/s 663 mmHg 24%
    14:00 +34°C° 0 mm 1 m/s 663 mmHg 22%
    15:00 +33°C° 0 mm 1 m/s 663 mmHg 22%
    16:00 +33°C° 0 mm 1 m/s 663 mmHg 22%
    17:00 +33°C° 0 mm 1 m/s 662 mmHg 23%
    18:00 +32°C° 0 mm 1 m/s 662 mmHg 26%
    19:00 +30°C° 0 mm 1 m/s 662 mmHg 29%
    20:00 +29°C° 0 mm 2 m/s 662 mmHg 33%
    21:00 +28°C° 0 mm 2 m/s 662 mmHg 34%
    22:00 +27°C° 0 mm 2 m/s 663 mmHg 36%
    23:00 +26°C° 0 mm 3 m/s 663 mmHg 38%

    13 Décembre, Vendredi

    Heure Température Précipitation Vent Pression Humidité
    00:00 +26°C° 0 mm 3 m/s 662 mmHg 40%
    01:00 +25°C° 0 mm 3 m/s 662 mmHg 43%
    02:00 +24°C° 0 mm 2 m/s 662 mmHg 46%
    03:00 +24°C° 0 mm 2 m/s 662 mmHg 52%
    04:00 +23°C° 0 mm 2 m/s 662 mmHg 58%
    05:00 +21°C° 0 mm 2 m/s 662 mmHg 64%
    06:00 +22°C° 0 mm 4 m/s 663 mmHg 66%
    07:00 +23°C° 0 mm 5 m/s 664 mmHg 67%
    08:00 +24°C° 0 mm 6 m/s 664 mmHg 69%
    09:00 +27°C° 0 mm 6 m/s 665 mmHg 61%
    10:00 +29°C° 0 mm 6 m/s 665 mmHg 53%
    11:00 +32°C° 0 mm 5 m/s 665 mmHg 45%
    12:00 +33°C° 0 mm 5 m/s 665 mmHg 40%
    13:00 +34°C° 0 mm 4 m/s 664 mmHg 34%
    14:00 +35°C° 0 mm 3 m/s 664 mmHg 29%
    15:00 +35°C° 0 mm 3 m/s 663 mmHg 30%
    16:00 +34°C° 0 mm 3 m/s 663 mmHg 30%
    17:00 +34°C° 0 mm 3 m/s 662 mmHg 30%
    18:00 +31°C° 0 mm 3 m/s 662 mmHg 34%
    19:00 +29°C° 0 mm 3 m/s 662 mmHg 38%
    20:00 +28°C° 0 mm 3 m/s 662 mmHg 42%
    21:00 +27°C° 0 mm 3 m/s 662 mmHg 45%
    22:00 +27°C° 0 mm 4 m/s 663 mmHg 48%
    23:00 +26°C° 0 mm 4 m/s 663 mmHg 51%

    14 Décembre, Samedi

    Heure Température Précipitation Vent Pression Humidité
    00:00 +26°C° 0 mm 4 m/s 663 mmHg 51%
    01:00 +26°C° 0 mm 4 m/s 663 mmHg 52%
    02:00 +26°C° 0 mm 4 m/s 663 mmHg 52%
    03:00 +25°C° 0 mm 4 m/s 663 mmHg 56%
    04:00 +24°C° 0 mm 3 m/s 663 mmHg 60%
    05:00 +22°C° 0 mm 3 m/s 663 mmHg 64%
    06:00 +23°C° 0 mm 4 m/s 663 mmHg 62%
    07:00 +25°C° 0 mm 4 m/s 664 mmHg 60%
    08:00 +26°C° 0 mm 5 m/s 664 mmHg 58%
    09:00 +28°C° 0 mm 5 m/s 664 mmHg 50%
    10:00 +32°C° 0 mm 5 m/s 665 mmHg 43%
    11:00 +34°C° 0 mm 5 m/s 665 mmHg 35%
    12:00 +34°C° 0 mm 4 m/s 664 mmHg 32%
    13:00 +35°C° 0 mm 4 m/s 664 mmHg 29%
    14:00 +36°C° 0 mm 4 m/s 663 mmHg 26%
    15:00 +35°C° 0 mm 3 m/s 663 mmHg 27%
    16:00 +34°C° 0 mm 3 m/s 662 mmHg 29%
    17:00 +33°C° 0 mm 3 m/s 662 mmHg 31%
    18:00 +33°C° 0 mm 3 m/s 662 mmHg 32%
    19:00 +31°C° 0 mm 3 m/s 662 mmHg 33%
    20:00 +30°C° 0 mm 3 m/s 662 mmHg 34%
    21:00 +29°C° 0 mm 3 m/s 662 mmHg 34%
    22:00 +29°C° 0 mm 3 m/s 662 mmHg 35%
    23:00 +28°C° 0 mm 3 m/s 663 mmHg 35%

    15 Décembre, Dimanche

    Heure Température Précipitation Vent Pression Humidité
    00:00 +28°C° 0.1 mm 3 m/s 663 mmHg 37%
    01:00 +28°C° 0.1 mm 3 m/s 662 mmHg 39%
    02:00 +27°C° 0.1 mm 2 m/s 662 mmHg 40%
    03:00 +26°C° 0.2 mm 2 m/s 662 mmHg 44%
    04:00 +25°C° 0.2 mm 1 m/s 662 mmHg 47%
    05:00 +25°C° 0.2 mm 1 m/s 662 mmHg 50%
    06:00 +26°C° 0 mm 2 m/s 662 mmHg 46%
    07:00 +28°C° 0 mm 2 m/s 663 mmHg 42%
    08:00 +29°C° 0 mm 3 m/s 664 mmHg 38%
    09:00 +31°C° 0 mm 3 m/s 664 mmHg 33%
    10:00 +34°C° 0 mm 4 m/s 665 mmHg 28%
    11:00 +36°C° 0 mm 4 m/s 665 mmHg 23%
    12:00 +37°C° 0 mm 4 m/s 664 mmHg 21%
    13:00 +39°C° 0 mm 5 m/s 664 mmHg 19%
    14:00 +39°C° 0 mm 5 m/s 664 mmHg 17%
    15:00 +39°C° 0 mm 5 m/s 663 mmHg 16%
    16:00 +39°C° 0 mm 5 m/s 663 mmHg 16%
    17:00 +37°C° 0 mm 5 m/s 662 mmHg 15%
    18:00 +35°C° 0 mm 5 m/s 662 mmHg 18%
    19:00 +33°C° 0 mm 4 m/s 662 mmHg 20%
    20:00 +30°C° 0 mm 4 m/s 662 mmHg 23%
    21:00 +29°C° 0 mm 4 m/s 663 mmHg 22%
    22:00 +28°C° 0 mm 5 m/s 663 mmHg 22%
    23:00 +27°C° 0 mm 5 m/s 663 mmHg 22%
    Voir plus